RASAT

Last updated on Wed Sep 17 2025 00:02:30 GMT+0000 (Coordinated Universal Time)

1 37791U 11044D 25259.65243527 .00000519 00000+0 99597-4 0 9991 2 37791 98.0671 350.2054 0020246 342.9413 122.8807 14.67710419753057
UTC large
Height (km)
Speed (km/s)
/
Latitude / Longitude
Inclination (degrees)
Orbital Period (minutes)
Azimuth
Elevation
Range (km)
Doppler Factor

Next 0 passes for location: London (51.5072 / 0.1276)

Sorry there are no passes over London.